DateTimeUTC,F1_A11,F1_S11,BsB_S11,BsG_S11,BsR_S11,BbsB_S11,BbsG_S11,BbsR_S11,BaB_A11,BaG_A11,BaR_A11,T_S11,U_S11,P_S11,T1_A11
2020-12-19T00:00:00Z,00000380,21000600,,,,,,,,,,23.0,00.0,0639.6,30.9
2020-12-19T00:01:00Z,00000380,21000600,,,,,,,,,,23.0,00.0,0639.6,30.9
2020-12-19T00:02:00Z,00000380,21000600,,,,,,,,,,23.0,00.0,0639.6,30.9
2020-12-19T00:03:00Z,00000380,61000600,,,,,,,,,,23.0,00.0,0639.6,30.8
2020-12-19T00:04:00Z,00000380,41000600,-001.38,0000.22,-000.20,-000.43,-000.28,0000.10,0000.14,0000.33,-000.08,22.7,00.0,0640.3,30.8
2020-12-19T00:05:00Z,00000380,01000600,0000.20,-000.33,-000.05,-000.06,0000.03,-000.42,0000.00,-000.01,0000.13,22.7,00.0,0640.3,30.8
2020-12-19T00:06:00Z,00000380,01000600,-000.74,0000.34,-000.15,0000.67,0000.36,-000.01,0000.08,0000.18,0000.14,22.7,00.0,0640.3,30.8
2020-12-19T00:07:00Z,00000380,01000600,-000.87,-000.30,-000.01,-000.61,0000.04,-000.33,-000.10,-000.12,-000.01,22.7,00.0,0640.3,30.8
2020-12-19T00:08:00Z,00000380,01000600,-000.66,-000.25,-000.60,0001.47,-000.01,-000.03,0000.10,0000.09,0000.08,22.7,00.0,0640.3,30.9
2020-12-19T00:09:00Z,00000380,01000600,-000.17,-000.57,-000.12,-000.18,0000.00,-000.09,0000.18,0000.08,0000.01,22.7,00.0,0640.4,30.9
2020-12-19T00:10:00Z,00000380,01000600,-000.03,0000.07,0000.12,-000.31,0000.16,-000.41,0000.08,0000.10,-000.02,22.7,00.0,0640.4,30.9
2020-12-19T00:11:00Z,00000380,01000600,-001.21,-000.09,-000.13,0000.16,0000.05,0000.34,-000.10,-000.10,0000.10,22.8,00.0,0640.4,30.9
2020-12-19T00:12:00Z,00000380,01000600,0000.72,0000.27,0000.07,-000.08,-000.28,0000.13,0000.05,-000.00,-000.08,22.8,00.0,0640.5,30.9
2020-12-19T00:13:00Z,00000380,01000600,0000.54,0000.40,0000.15,0001.11,-000.03,0000.06,-000.08,-000.10,-000.04,22.8,00.0,0640.4,30.9
2020-12-19T00:14:00Z,00000380,01000600,0000.49,0000.43,0000.04,0000.77,0000.30,0000.24,-000.30,-000.21,-000.09,22.8,00.0,0640.4,30.9
2020-12-19T00:15:00Z,00000380,01000600,-001.68,-000.36,-000.31,0000.05,-000.17,-000.08,0000.18,0000.06,0000.01,22.8,00.0,0640.3,30.9
2020-12-19T00:16:00Z,00000380,01000600,-000.87,0000.31,-000.08,-000.31,-000.09,-000.23,0000.05,-000.05,0000.02,22.7,00.0,0640.3,30.8
2020-12-19T00:17:00Z,00000380,01000600,0000.05,-000.04,-000.08,0000.14,0000.25,0000.16,-000.10,0000.04,-000.21,22.7,00.0,0640.2,30.8
2020-12-19T00:18:00Z,00000380,01000600,0000.45,0000.07,0000.28,0000.45,0000.40,0000.13,-000.03,0000.02,0000.25,22.7,00.0,0640.2,30.8
2020-12-19T00:19:00Z,00000380,01000600,0000.22,0000.24,-000.11,-000.33,-000.07,0000.00,0000.19,0000.22,-000.02,22.7,00.0,0640.2,30.8
2020-12-19T00:20:00Z,00000380,01000600,-000.58,0000.13,-000.19,0000.58,-000.17,-000.10,0000.13,0000.10,0000.05,22.6,00.0,0640.2,30.8
2020-12-19T00:21:00Z,00000380,01000600,-000.58,-000.18,0000.07,0001.23,-000.12,-000.10,-000.00,-000.14,-000.02,22.6,00.0,0640.2,30.8
2020-12-19T00:22:00Z,00000380,01000600,0000.57,0000.15,-000.13,0000.16,0000.17,0000.19,0000.08,0000.16,0000.10,22.6,00.0,0640.2,30.8
2020-12-19T00:23:00Z,00000380,01000600,-000.43,-000.23,0000.15,0000.02,-000.37,0000.02,-000.02,0000.06,0000.02,22.7,00.0,0640.2,30.9
2020-12-19T00:24:00Z,00000380,01000600,-000.30,-000.24,-000.27,-000.52,-000.00,-000.06,0000.12,0000.08,0000.16,22.7,00.0,0640.2,30.9
2020-12-19T00:25:00Z,00000380,01000600,-000.35,-000.00,-000.02,0000.24,-000.26,0000.24,0000.07,-000.05,-000.12,22.7,00.0,0640.2,30.9
2020-12-19T00:26:00Z,00000380,01000600,-000.27,0000.37,-000.60,-000.11,0000.24,-000.30,-000.15,-000.10,-000.03,22.7,00.0,0640.3,30.9
2020-12-19T00:27:00Z,00000380,01000600,-000.29,-000.12,-000.07,0000.34,-000.06,-000.29,-000.10,0000.09,0000.05,22.8,00.0,0640.3,30.9
2020-12-19T00:28:00Z,00000380,01000600,-000.35,0000.25,-000.04,-000.56,-000.41,0000.21,0000.22,-000.06,-000.01,22.8,00.0,0640.1,30.9
2020-12-19T00:29:00Z,00000380,01000600,-000.02,0000.31,-000.16,0001.13,-000.19,0000.26,-000.06,-000.09,-000.10,22.7,00.0,0640.1,30.9
2020-12-19T00:30:00Z,00000380,01000600,-000.00,0000.29,0000.28,0000.66,0000.11,0000.14,-000.05,0000.07,0000.09,22.7,00.0,0640.0,30.9
2020-12-19T00:31:00Z,00000380,01000600,-000.10,0000.02,-000.15,0000.97,-000.39,-000.33,0000.02,0000.01,0000.11,22.7,00.0,0640.0,30.9
2020-12-19T00:32:00Z,00000380,01000600,0001.25,0000.27,-000.09,0000.91,0000.07,-000.01,0000.09,-000.04,-000.05,22.7,00.0,0640.0,30.9
2020-12-19T00:33:00Z,00000380,01000600,0000.18,-000.27,0000.29,-000.46,-000.03,0000.30,0000.04,0000.05,0000.04,22.7,00.0,0639.9,30.9
2020-12-19T00:34:00Z,00000380,01000600,-000.82,0000.06,0000.23,-000.33,-000.15,-000.00,0000.11,0000.26,0000.04,22.6,00.0,0639.9,30.8
2020-12-19T00:35:00Z,00000380,01000600,-000.50,0000.21,0000.13,0000.57,-000.02,0000.12,0000.05,0000.01,0000.13,22.6,00.0,0639.9,30.8
2020-12-19T00:36:00Z,00000380,01000600,-000.63,0000.64,0000.06,0000.19,-000.48,-000.02,0000.11,0000.05,0000.05,22.6,00.0,0639.9,30.8
2020-12-19T00:37:00Z,00000380,01000600,-000.52,0000.63,-000.00,0000.21,0000.13,-000.27,0000.19,0000.00,0000.01,22.6,00.0,0639.7,30.8
2020-12-19T00:38:00Z,00000380,01000600,-001.01,-000.70,0000.46,0000.38,0000.03,0000.71,0000.11,0000.14,0000.11,22.6,00.0,0639.7,30.9
2020-12-19T00:39:00Z,00000380,01000600,-000.23,0000.43,-000.10,0000.01,-000.18,-000.13,0000.01,0000.07,-000.03,22.7,00.0,0639.8,30.9
2020-12-19T00:40:00Z,00000380,01000600,-000.76,0000.00,0000.46,0000.50,0000.33,0000.32,0000.03,0000.01,0000.15,22.7,00.0,0639.8,30.9
2020-12-19T00:41:00Z,00000380,01000600,0000.30,0000.13,0000.18,0000.46,0000.32,0000.14,0000.05,0000.06,-000.19,22.7,00.0,0639.7,30.9
2020-12-19T00:42:00Z,00000380,01000600,-000.24,0000.57,0000.04,0000.04,0000.16,-000.02,0000.03,-000.08,0000.16,22.7,00.0,0639.7,30.9
2020-12-19T00:43:00Z,00000380,01000600,-001.18,0000.21,-000.03,-000.21,-000.05,0000.15,0000.05,0000.15,0000.04,22.8,00.0,0639.6,30.9
2020-12-19T00:44:00Z,00000380,01000600,-000.82,0000.23,-000.10,0000.39,-000.13,-000.14,-000.16,0000.07,-000.10,22.8,00.0,0639.5,30.9
2020-12-19T00:45:00Z,00000380,01000600,-000.40,0000.49,0000.30,0000.08,-000.28,-000.11,0000.13,0000.03,0000.06,22.7,00.0,0639.5,30.9
2020-12-19T00:46:00Z,00000380,01000600,-000.19,0000.10,-000.12,0000.35,0000.05,-000.34,0000.29,0000.13,0000.36,22.7,00.0,0639.5,30.9
2020-12-19T00:47:00Z,00000380,01000600,-000.08,0000.40,-000.35,-000.39,-000.26,-000.12,0000.11,0000.17,-000.12,22.7,00.0,0639.6,30.9
2020-12-19T00:48:00Z,00000380,01000600,0001.83,0000.23,0000.16,-000.06,0000.16,0000.04,0000.01,-000.15,-000.01,22.7,00.0,0639.8,30.8
2020-12-19T00:49:00Z,00000380,01000600,-000.87,0000.12,-000.27,0000.09,0000.72,0000.12,0000.28,0000.21,0000.08,22.6,00.0,0639.8,30.8
2020-12-19T00:50:00Z,00000380,01000600,-000.69,0000.27,0000.21,0000.16,0000.04,-000.19,-000.06,-000.02,0000.08,22.6,00.0,0639.9,30.8
2020-12-19T00:51:00Z,00000380,01000600,-000.40,0000.13,0000.22,0000.84,0000.32,0000.38,-000.05,0000.10,0000.05,22.6,00.0,0639.9,30.8
2020-12-19T00:52:00Z,00000380,01000600,-000.58,-000.06,-000.22,0001.53,-000.15,0000.35,0000.11,0000.02,-000.08,22.6,00.0,0639.8,30.8
2020-12-19T00:53:00Z,00000380,01000600,-000.17,-000.49,0000.30,-000.59,-000.03,0000.26,-000.21,-000.14,-000.04,22.6,00.0,0639.7,30.9
2020-12-19T00:54:00Z,00000380,01000600,-001.74,-000.11,-000.34,0000.16,0000.07,-000.06,0000.14,-000.01,0000.13,22.7,00.0,0639.8,30.9
2020-12-19T00:55:00Z,00000380,01000600,-000.43,0000.37,0000.60,0000.18,0000.04,0000.05,-000.01,0000.07,0000.10,22.7,00.0,0639.9,30.9
2020-12-19T00:56:00Z,00000380,01000600,-000.92,0000.03,0000.15,0000.61,0000.01,0000.28,-000.07,-000.14,-000.25,22.7,00.0,0639.9,30.9
2020-12-19T00:57:00Z,00000380,41000600,,,,,,,,,,22.7,00.0,0639.9,30.9
2020-12-19T00:58:00Z,00000380,61000600,,,,,,,,,,22.9,00.0,0639.1,30.9
2020-12-19T00:59:00Z,00000380,21000600,,,,,,,,,,23.0,00.0,0639.1,30.9
2020-12-19T01:00:00Z,00000380,21000600,,,,,,,,,,23.0,00.0,0639.2,30.9
2020-12-19T01:01:00Z,00000380,21000600,,,,,,,,,,23.0,00.0,0639.2,30.8
2020-12-19T01:02:00Z,00000380,21000600,,,,,,,,,,22.9,00.0,0639.2,30.8
2020-12-19T01:03:00Z,00000380,61000600,,,,,,,,,,22.9,00.0,0639.2,30.8
2020-12-19T01:04:00Z,00000380,41000600,-000.11,0000.04,0000.54,0000.46,0000.63,-000.06,0000.21,0000.08,-000.02,22.6,00.0,0640.2,30.8
2020-12-19T01:05:00Z,00000380,01000600,-000.32,-000.37,-000.28,0000.78,0000.32,-000.14,0000.07,-000.07,-000.16,22.5,00.0,0640.2,30.8
2020-12-19T01:06:00Z,00000380,01000600,-000.03,-000.10,-000.08,0000.64,0000.20,-000.05,-000.02,0000.03,0000.24,22.5,00.0,0640.1,30.8
2020-12-19T01:07:00Z,00000380,01000600,-000.34,-000.13,0000.25,0000.49,0000.39,0000.09,0000.00,-000.09,0000.04,22.5,00.0,0640.0,30.8
2020-12-19T01:08:00Z,00000380,01000600,0000.78,0000.29,0000.09,0000.90,-000.10,0000.18,-000.08,0000.06,0000.01,22.5,00.0,0640.0,30.8
2020-12-19T01:09:00Z,00000380,01000600,0000.60,0000.32,-000.17,0000.02,0000.00,0000.25,-000.01,0000.16,-000.10,22.6,00.0,0640.1,30.8
2020-12-19T01:10:00Z,00000380,01000600,-000.64,0000.32,-000.47,0000.25,-000.33,-000.08,0000.09,-000.12,0000.02,22.6,00.0,0640.1,30.9
2020-12-19T01:11:00Z,00000380,01000600,0000.21,0000.66,-000.66,0000.88,-000.04,0000.27,0000.03,0000.13,0000.00,22.6,00.0,0640.1,30.9
2020-12-19T01:12:00Z,00000380,01000600,-000.53,-000.11,-000.05,-000.65,-000.26,-000.04,0000.14,0000.15,0000.10,22.6,00.0,0640.0,30.9
2020-12-19T01:13:00Z,00000380,01000600,-000.69,0000.04,-000.15,0000.25,0000.08,-000.09,-000.03,-000.04,0000.03,22.7,00.0,0639.9,30.9
2020-12-19T01:14:00Z,00000380,01000600,0000.13,-000.18,0000.18,0000.31,-000.63,0000.36,-000.02,-000.00,0000.00,22.7,00.0,0639.9,30.9
2020-12-19T01:15:00Z,00000380,01000600,0000.82,0000.66,0000.38,0000.17,0000.20,-000.11,0000.09,0000.02,0000.04,22.6,00.0,0639.8,30.9
2020-12-19T01:16:00Z,00000380,01000600,0000.69,-000.17,-000.23,0000.84,0000.08,-000.15,-000.03,-000.01,0000.09,22.6,00.0,0639.7,30.9
2020-12-19T01:17:00Z,00000380,01000600,0000.18,0000.09,0000.09,-000.23,-000.06,-000.59,0000.20,0000.13,-000.00,22.6,00.0,0639.6,30.9
2020-12-19T01:18:00Z,00000380,01000600,0000.15,-000.07,-000.05,0000.80,0000.05,-000.03,0000.08,0000.14,0000.08,22.6,00.0,0639.7,30.8
2020-12-19T01:19:00Z,00000380,01000600,0000.66,-000.26,0000.27,0000.64,-000.25,-000.18,0000.22,0000.18,0000.17,22.5,00.0,0639.7,30.8
2020-12-19T01:20:00Z,00000380,01000600,-000.55,-000.23,-000.04,0000.48,0000.31,-000.13,0000.03,0000.09,0000.10,22.5,00.0,0639.7,30.8
2020-12-19T01:21:00Z,00000380,01000600,0000.38,0000.31,-000.20,-000.03,-000.02,-000.01,0000.12,-000.01,0000.07,22.5,00.0,0639.8,30.8
2020-12-19T01:22:00Z,00000380,01000600,0000.27,0000.68,-000.59,0000.48,-000.09,0000.19,0000.21,0000.11,0000.06,22.6,00.0,0639.8,30.8
2020-12-19T01:23:00Z,00000380,01000600,0000.34,0000.53,-000.42,0000.70,0000.15,-000.07,-000.07,0000.03,-000.06,22.6,00.0,0639.8,30.9
2020-12-19T01:24:00Z,00000380,01000600,0000.26,0000.21,0000.47,0000.11,-000.10,-000.23,-000.05,0000.05,0000.11,22.6,00.0,0639.8,30.9
2020-12-19T01:25:00Z,00000380,01000600,-001.06,0000.24,0000.06,0000.33,0000.04,0000.27,0000.07,-000.07,0000.01,22.6,00.0,0639.9,30.9
2020-12-19T01:26:00Z,00000380,01000600,-000.30,0000.14,0000.08,0000.23,0000.16,-000.26,-000.01,0000.08,0000.06,22.6,00.0,0639.9,30.9
2020-12-19T01:27:00Z,00000380,01000600,-000.60,-000.07,0000.14,0000.16,0000.06,-000.04,-000.04,0000.03,0000.02,22.6,00.0,0640.0,30.9
2020-12-19T01:28:00Z,00000380,01000600,0000.28,0000.37,0000.20,-000.14,-000.15,0000.18,0000.03,-000.04,-000.10,22.7,00.0,0640.0,30.9
2020-12-19T01:29:00Z,00000380,01000600,0001.61,0000.04,-000.24,0001.05,-000.31,0000.16,-000.17,-000.12,-000.09,22.7,00.0,0639.9,30.9
2020-12-19T01:30:00Z,00000380,01000600,0000.99,0000.44,0000.21,-000.32,-000.20,0000.30,-000.23,-000.20,-000.17,22.6,00.0,0639.9,30.9
2020-12-19T01:31:00Z,00000380,01000600,0000.54,0000.12,0000.31,-000.17,-000.09,-000.01,-000.04,-000.08,-000.11,22.6,00.0,0639.8,30.8
2020-12-19T01:32:00Z,00000380,01000600,-000.61,-000.17,-000.18,0001.03,-000.28,-000.08,-000.01,-000.13,0000.04,22.6,00.0,0639.7,30.8
2020-12-19T01:33:00Z,00000380,01000600,0000.44,0000.32,-000.15,0000.31,0000.00,0000.03,0000.01,0000.08,0000.05,22.6,00.0,0639.6,30.8
2020-12-19T01:34:00Z,00000380,01000600,-001.14,0000.88,0000.04,0000.04,0000.03,-000.15,0000.20,0000.26,0000.02,22.5,00.0,0639.7,30.8
2020-12-19T01:35:00Z,00000380,01000600,-001.71,0000.38,-000.08,-000.00,-000.16,-000.28,-000.01,-000.02,-000.00,22.5,00.0,0639.6,30.8
2020-12-19T01:36:00Z,00000380,01000600,-000.14,0000.02,0000.04,-000.12,0000.15,0000.05,-000.05,-000.02,0000.04,22.5,00.0,0639.6,30.8
2020-12-19T01:37:00Z,00000380,01000600,-000.49,-000.00,-000.00,0000.49,0000.22,-000.27,0000.23,0000.09,0000.27,22.5,00.0,0639.5,30.8
2020-12-19T01:38:00Z,00000380,01000600,-000.15,0000.34,-000.28,-000.47,0000.03,-000.15,0000.06,0000.25,-000.06,22.5,00.0,0639.4,30.8
2020-12-19T01:39:00Z,00000380,01000600,-000.77,-000.01,-000.33,0001.26,0000.19,-000.22,0000.24,0000.05,0000.02,22.6,00.0,0639.4,30.9
2020-12-19T01:40:00Z,00000380,01000600,-001.51,0000.08,-000.20,0000.07,0000.14,0000.06,0000.11,-000.01,0000.16,22.6,00.0,0639.5,30.9
2020-12-19T01:41:00Z,00000380,01000600,0000.60,0000.14,0000.34,0000.95,0000.08,-000.21,-000.08,0000.09,0000.03,22.6,00.0,0639.5,30.9
2020-12-19T01:42:00Z,00000380,01000600,0000.17,0000.17,0000.21,-000.13,-000.21,0000.17,0000.02,-000.09,0000.00,22.6,00.0,0639.6,30.9
2020-12-19T01:43:00Z,00000380,01000600,-000.38,0000.22,-000.33,0000.30,0000.48,-000.29,-000.16,-000.12,-000.08,22.6,00.0,0639.6,30.9
2020-12-19T01:44:00Z,00000380,01000600,0000.40,0000.25,0000.49,0000.11,0000.07,0000.03,0000.11,0000.32,-000.14,22.6,00.0,0639.7,30.8
2020-12-19T01:45:00Z,00000380,01000600,-000.17,0000.27,-000.13,0000.79,0000.19,-000.21,-000.11,-000.33,0000.11,22.5,00.0,0639.7,30.8
2020-12-19T01:46:00Z,00000380,01000600,-000.12,0000.43,0000.01,0000.77,0000.26,0000.16,-000.04,0000.10,-000.05,22.5,00.0,0639.8,30.8
2020-12-19T01:47:00Z,00000380,01000600,0000.94,0000.38,0000.46,0000.95,0000.14,0000.34,0000.02,-000.14,-000.11,22.5,00.0,0639.8,30.8
2020-12-19T01:48:00Z,00000380,01000600,-000.19,0000.77,-000.12,-000.05,0000.32,0000.18,0000.10,0000.00,0000.01,22.4,00.0,0639.9,30.8
2020-12-19T01:49:00Z,00000380,01000600,0001.45,0000.45,0000.29,0000.54,0000.09,-000.16,0000.14,0000.15,-000.02,22.4,00.0,0639.9,30.8
2020-12-19T01:50:00Z,00000380,01000600,0001.41,0000.29,-000.12,0000.91,0000.50,0000.18,-000.10,-000.05,0000.06,22.4,00.0,0639.9,30.8
2020-12-19T01:51:00Z,00000380,01000600,0000.31,-000.08,0000.34,0000.51,-000.21,-000.32,0000.13,-000.03,0000.16,22.4,00.0,0639.9,30.8
2020-12-19T01:52:00Z,00000380,01000600,-000.57,0000.28,-000.12,-000.16,0000.12,0000.60,-000.06,0000.18,-000.11,22.4,00.0,0639.9,30.8
2020-12-19T01:53:00Z,00000380,01000600,0000.34,0000.06,0000.15,0000.52,-000.04,-000.09,-000.06,0000.07,-000.05,22.4,00.0,0639.9,30.8
2020-12-19T01:54:00Z,00000380,01000600,-000.19,0000.42,-000.08,0000.80,0000.36,-000.33,-000.01,-000.20,0000.06,22.4,00.0,0639.9,30.8
2020-12-19T01:55:00Z,00000380,01000600,0001.62,0000.48,0000.39,0000.95,0000.02,0000.41,0000.17,0000.02,0000.07,22.4,00.0,0640.0,30.8
2020-12-19T01:56:00Z,00000380,01000600,0000.98,0000.47,0000.43,0001.10,-000.03,0000.13,-000.05,0000.15,0000.02,22.5,00.0,0640.0,30.8
2020-12-19T01:57:00Z,00000380,41000600,,,,,,,,,,22.5,00.0,0640.1,30.8
2020-12-19T01:58:00Z,00000380,61000600,,,,,,,,,,22.7,00.0,0639.2,30.9
2020-12-19T01:59:00Z,00000380,21000600,,,,,,,,,,22.8,00.0,0639.2,30.8
2020-12-19T02:00:00Z,00000380,21000600,,,,,,,,,,22.8,00.0,0639.2,30.8
2020-12-19T02:01:00Z,00000380,21000600,,,,,,,,,,22.8,00.0,0639.1,30.8
2020-12-19T02:02:00Z,00000380,21000600,,,,,,,,,,22.8,00.0,0639.1,30.8
2020-12-19T02:03:00Z,00000380,61000600,,,,,,,,,,22.8,00.0,0639.1,30.8
2020-12-19T02:04:00Z,00000380,41000600,0001.24,0000.08,-000.00,-000.25,0000.50,-000.32,0000.04,0000.21,0000.26,22.4,00.0,0640.0,30.8
2020-12-19T02:05:00Z,00000380,01000600,0001.02,0000.28,0000.33,-000.22,0000.26,0000.11,0000.16,0000.00,0000.01,22.4,00.0,0640.0,30.8
2020-12-19T02:06:00Z,00000380,01000600,0001.23,0000.48,0000.51,0000.70,0000.22,-000.07,-000.15,0000.03,0000.06,22.4,00.0,0640.0,30.8
2020-12-19T02:07:00Z,00000380,01000600,0000.99,0000.77,0000.15,0000.55,0000.17,0000.32,0000.08,0000.02,-000.08,22.4,00.0,0639.9,30.8
2020-12-19T02:08:00Z,00000380,01000600,0000.71,0000.33,0000.46,0000.33,0000.22,0000.11,-000.06,0000.03,0000.15,22.4,00.0,0639.9,30.8
2020-12-19T02:09:00Z,00000380,01000600,0000.07,0000.56,0000.19,0000.52,0000.12,0000.14,0000.19,0000.05,0000.16,22.4,00.0,0640.0,30.8
2020-12-19T02:10:00Z,00000380,01000600,0000.41,0000.45,0000.65,0000.21,-000.00,-000.06,-000.05,-000.03,-000.12,22.4,00.0,0640.0,30.8
2020-12-19T02:11:00Z,00000380,01000600,0001.35,-000.08,-000.17,-000.58,0000.13,0000.00,0000.08,-000.00,-000.01,22.4,00.0,0639.9,30.8
2020-12-19T02:12:00Z,00000380,01000600,0000.71,0000.48,0001.05,-000.43,0000.00,0000.25,-000.07,0000.12,0000.02,22.5,00.0,0640.0,30.9
2020-12-19T02:13:00Z,00000380,01000600,0001.02,0000.56,0000.51,-001.06,0000.39,0000.08,0000.06,0000.12,-000.14,22.5,00.0,0640.0,30.9
2020-12-19T02:14:00Z,00000380,01000600,0000.94,0000.71,0000.19,-000.73,0000.31,0000.03,-000.09,0000.02,0000.21,22.5,00.0,0640.0,30.9
2020-12-19T02:15:00Z,00000380,01000600,0001.12,-000.04,0000.43,0000.17,-000.23,0000.17,0000.15,-000.18,-000.16,22.5,00.0,0640.0,30.9
2020-12-19T02:16:00Z,00000380,01000600,-000.24,0000.52,0000.49,-000.34,0000.25,0000.32,-000.24,-000.07,-000.05,22.5,00.0,0639.9,30.9
2020-12-19T02:17:00Z,00000380,01000600,0000.23,0000.42,0000.12,-000.07,0000.39,0000.08,-000.02,-000.11,0000.03,22.5,00.0,0640.0,30.8
2020-12-19T02:18:00Z,00000380,01000600,0001.09,0000.21,0000.12,0000.47,-000.26,0000.33,-000.07,-000.04,-000.07,22.5,00.0,0639.9,30.8
2020-12-19T02:19:00Z,00000380,01000600,0001.29,0000.49,-000.16,0000.43,0000.30,0000.07,0000.26,0000.20,0000.01,22.4,00.0,0639.9,30.8
2020-12-19T02:20:00Z,00000380,01000600,0000.94,-000.26,0001.00,-000.57,-000.17,0000.30,0000.02,0000.07,0000.11,22.4,00.0,0639.9,30.8
2020-12-19T02:21:00Z,00000380,01000600,0000.48,-000.22,0000.35,-000.28,0000.22,0000.27,-000.00,0000.03,0000.09,22.4,00.0,0640.0,30.8
2020-12-19T02:22:00Z,00000380,01000600,0000.17,-000.16,-000.55,-000.28,0000.60,-000.07,0000.03,0000.04,-000.03,22.4,00.0,0639.9,30.8
2020-12-19T02:23:00Z,00000380,01000600,0000.34,0000.26,0000.55,-000.03,-000.07,0000.24,0000.07,0000.00,-000.01,22.4,00.0,0639.9,30.8
2020-12-19T02:24:00Z,00000380,01000600,-000.57,0000.49,0000.24,0000.53,0000.30,0000.30,0000.03,0000.07,0000.25,22.5,00.0,0639.9,30.9
2020-12-19T02:25:00Z,00000380,01000600,0000.77,0000.19,0000.20,-000.15,0000.13,-000.17,0000.05,0000.07,-000.10,22.5,00.0,0639.8,30.9
2020-12-19T02:26:00Z,00000380,01000600,0001.59,0000.52,0000.12,-000.71,0000.23,0000.39,0000.11,-000.03,-000.01,22.5,00.0,0639.8,30.9
2020-12-19T02:27:00Z,00000380,01000600,0001.20,0000.30,0000.13,0000.49,0000.30,0000.36,0000.06,0000.17,0000.17,22.5,00.0,0639.8,30.9
2020-12-19T02:28:00Z,00000380,01000600,0001.09,0000.61,0000.23,-000.05,0000.09,0000.16,-000.05,-000.01,-000.04,22.5,00.0,0639.8,30.9
2020-12-19T02:29:00Z,00000380,01000600,0000.55,0000.19,0000.38,0000.24,0000.06,-000.01,0000.05,0000.13,0000.09,22.6,00.0,0639.8,30.9
2020-12-19T02:30:00Z,00000380,01000600,0001.54,0000.60,0000.46,0000.35,0000.61,-000.06,0000.14,-000.10,-000.04,22.6,00.0,0639.7,30.9
2020-12-19T02:31:00Z,00000380,01000600,0001.20,0000.66,0000.39,-000.18,0000.17,0000.16,-000.20,0000.01,-000.01,22.6,00.0,0639.7,30.9
2020-12-19T02:32:00Z,00000380,01000600,0000.46,0000.55,0000.34,-000.07,0000.06,0000.29,0000.08,-000.05,0000.04,22.6,00.0,0639.6,30.9
2020-12-19T02:33:00Z,00000380,01000600,-000.31,0000.53,0000.59,-000.07,-000.36,0000.50,0000.07,0000.23,-000.08,22.5,00.0,0639.5,30.8
2020-12-19T02:34:00Z,00000380,01000600,0000.64,0000.63,0000.13,-000.88,0000.36,0000.08,0000.18,0000.24,0000.17,22.5,00.0,0639.5,30.8
2020-12-19T02:35:00Z,00000380,01000600,0001.76,-000.16,0001.08,-000.15,0000.15,0000.16,0000.01,-000.03,0000.18,22.5,00.0,0639.4,30.8
2020-12-19T02:36:00Z,00000380,01000600,0001.76,0000.67,0000.73,-000.29,0000.43,-000.08,0000.37,0000.08,0000.14,22.5,00.0,0639.4,30.8
2020-12-19T02:37:00Z,00000380,01000600,0000.38,0000.74,0000.10,-000.29,0000.05,-000.16,0000.05,0000.35,0000.11,22.5,00.0,0639.4,30.8
2020-12-19T02:38:00Z,00000380,01000600,0000.89,-000.08,0000.82,0000.72,0000.19,-000.07,0000.08,-000.06,-000.16,22.5,00.0,0639.5,30.8
2020-12-19T02:39:00Z,00000380,01000600,0001.22,-000.32,-000.20,-000.73,0000.59,0000.01,0000.10,0000.01,0000.17,22.5,00.0,0639.5,30.9
2020-12-19T02:40:00Z,00000380,01000600,-000.17,0000.08,0000.60,-000.23,0000.15,-000.12,-000.05,-000.00,0000.15,22.5,00.0,0639.6,30.9
2020-12-19T02:41:00Z,00000380,01000600,0001.05,0000.15,-000.38,-000.57,0000.06,0000.17,0000.09,0000.13,-000.09,22.6,00.0,0639.6,30.9
2020-12-19T02:42:00Z,00000380,01000600,0000.24,0000.52,0000.28,-000.42,0000.11,0000.05,-000.02,0000.02,0000.06,22.6,00.0,0639.6,30.9
2020-12-19T02:43:00Z,00000380,01000600,0000.16,0000.10,0000.36,0000.30,0000.56,0000.15,0000.07,0000.01,0000.02,22.6,00.0,0639.6,30.9
2020-12-19T02:44:00Z,00000380,01000600,0001.56,0000.47,0000.48,-000.16,0000.25,0000.15,-000.10,-000.11,-000.03,22.6,00.0,0639.6,30.9
2020-12-19T02:45:00Z,00000380,01000600,0000.77,0000.38,0000.23,0000.12,0000.55,0000.45,-000.26,-000.02,-000.14,22.6,00.0,0639.7,30.9
2020-12-19T02:46:00Z,00000380,01000600,0001.35,0000.09,0000.17,-000.68,0000.24,-000.16,-000.15,-000.19,-000.10,22.6,00.0,0639.6,30.9
2020-12-19T02:47:00Z,00000380,01000600,0001.51,0000.39,0000.98,0000.50,0000.18,0000.23,0000.04,-000.12,-000.14,22.5,00.0,0639.7,30.9
2020-12-19T02:48:00Z,00000380,01000600,-000.02,0000.01,0000.07,-000.53,0000.13,0000.40,-000.11,-000.00,0000.07,22.5,00.0,0639.7,30.8
2020-12-19T02:49:00Z,00000380,01000600,0000.46,0000.11,0000.44,0000.34,-000.07,-000.10,0000.13,-000.03,-000.03,22.5,00.0,0639.8,30.8
2020-12-19T02:50:00Z,00000380,01000600,0001.15,0000.24,0000.04,-000.71,0000.00,0000.10,0000.05,0000.05,0000.00,22.5,00.0,0639.9,30.8
2020-12-19T02:51:00Z,00000380,01000600,0000.88,0000.08,0000.70,0000.84,0000.03,0000.46,-000.06,0000.08,0000.07,22.5,00.0,0639.9,30.8
2020-12-19T02:52:00Z,00000380,01000600,0000.91,0000.31,0000.55,-000.14,0000.28,0000.67,-000.08,-000.06,-000.10,22.5,00.0,0640.0,30.8
2020-12-19T02:53:00Z,00000380,01000600,0000.59,-000.03,0000.39,0000.61,0000.08,0000.12,-000.10,0000.02,0000.09,22.5,00.0,0640.0,30.8
2020-12-19T02:54:00Z,00000380,01000600,0000.55,0000.28,0000.14,-000.20,-000.15,0000.25,0000.03,-000.00,-000.19,22.5,00.0,0640.0,30.9
2020-12-19T02:55:00Z,00000380,01000600,0001.11,0000.34,-000.11,-000.16,-000.02,0000.05,0000.02,-000.07,0000.03,22.5,00.0,0640.0,30.9
2020-12-19T02:56:00Z,00000380,01000600,0000.92,0001.19,0000.75,0000.03,0000.33,-000.21,-000.23,-000.26,-000.08,22.6,00.0,0640.0,30.9
2020-12-19T02:57:00Z,00000380,41000600,,,,,,,,,,22.6,00.0,0640.0,30.9
2020-12-19T02:58:00Z,00000380,61000600,,,,,,,,,,22.8,00.0,0639.1,30.9
2020-12-19T02:59:00Z,00000380,21000600,,,,,,,,,,22.9,00.0,0639.1,30.9
2020-12-19T03:00:00Z,00000380,21000600,,,,,,,,,,22.9,00.0,0639.1,30.9
2020-12-19T03:01:00Z,00000380,21000600,,,,,,,,,,22.9,00.0,0639.1,30.9
2020-12-19T03:02:00Z,00000380,21000600,,,,,,,,,,22.9,00.0,0639.1,30.9
2020-12-19T03:03:00Z,00000380,61000600,,,,,,,,,,22.9,00.0,0639.1,30.8
2020-12-19T03:04:00Z,00000380,41000600,0000.84,0000.38,-000.34,0000.77,-000.18,-000.17,0000.09,0000.03,-000.06,22.7,00.0,0639.9,30.8
2020-12-19T03:05:00Z,00000380,01000600,0001.06,0000.52,-000.17,0000.14,0000.18,0000.01,0000.12,0000.08,0000.09,22.6,00.0,0640.0,30.8
2020-12-19T03:06:00Z,00000380,01000600,0000.97,0000.83,0000.10,0000.04,0000.24,-000.08,-000.09,0000.09,0000.02,22.6,00.0,0640.0,30.8
2020-12-19T03:07:00Z,00000380,01000600,0001.04,0000.52,-000.32,-000.45,0000.16,0000.30,-000.07,-000.12,0000.15,22.6,00.0,0640.0,30.9
2020-12-19T03:08:00Z,00000380,01000600,0000.60,0000.56,-000.05,0001.12,-000.20,0000.04,0000.06,0000.11,-000.13,22.6,00.0,0639.9,30.9
2020-12-19T03:09:00Z,00000380,01000600,0001.11,0001.02,0000.20,0000.53,0000.12,0000.19,0000.07,0000.12,0000.07,22.7,00.0,0639.9,30.9
2020-12-19T03:10:00Z,00000380,01000600,0000.81,0000.71,-000.18,0000.59,0000.20,0000.30,-000.00,0000.04,0000.06,22.7,00.0,0639.9,30.9